Location: *
(46.1866°S, 178.5290°W)
Time: 05:31:22
(UTC+00:00)

CZ-4B R/B - Pass Details

Date: 29 September 2021
Orbit: 809 x 881 km, 99.1° (Epoch: 17 October)

Event Time Altitude Azimuth Distance (km) Brightness Sun altitude
Rises 06:41:00 0° 162° (SSE) 3,372 6.3 -7.9°
Reaches altitude 10° 06:43:24 10° 158° (SSE) 2,432 5.5 -8.3°
Maximum altitude 06:48:41 57° 79° (ENE) 962 3.2 -9.2°
Drops below altitude 10° 06:53:57 10° 359° (N) 2,418 5.4 -10.1°
Sets 06:56:20 0° 355° (N) 3,350 6.2 -10.5°
